Taylorville, IL

1:52 AM CDT on April 25, 2017 (GMT -0500)
Taylorville Municipal

Weather History for KTAZ - November, 2013

Change the Weather History Date:

Saturday, November 23, 2013

  Actual Average (KSPI) Record (KSPI)
Temperature  
Mean Temperature 24 °F -  
Max Temperature 30 °F 48 °F 72 °F (1931)
Min Temperature 17 °F 30 °F 0 °F (1950)
Degree Days  
Heating Degree Days 42    
Moisture  
Dew Point 18 °F    
Average Humidity 73    
Maximum Humidity 93    
Minimum Humidity 59    
Precipitation  
Precipitation 0.00 in - - ()
Sea Level Pressure  
Sea Level Pressure 30.60 in    
Wind  
Wind Speed 13 mph (NNW)    
Max Wind Speed 24 mph    
Max Gust Speed 29 mph    
Visibility 10 miles    
Events      
Averages and records for this station are not official NWS values.
T = Trace of Precipitation, MM = Missing Value Source: NWS Daily Summary

Daily Weather History Graph

Daily Weather History Graph

Search for Another Location

Airport or City:

Trip Planner

Search our weather history database for the weather conditions in past years. The results will help you decide how hot, cold, wet, or windy it might be!

Date:

Astronomy

Nov. 23, 2013 Rise Set
Actual Time 6:50 AM CST 4:36 PM CST
Civil Twilight 6:21 AM CST 5:06 PM CST
Nautical Twilight 5:48 AM CST 5:39 PM CST
Astronomical Twilight 5:16 AM CST 6:11 PM CST
Moon 10:04 PM CST (11/23) 11:07 AM CST (11/23)
Length of Visible Light 10h 44m
Length of Day
9h 46m
Waning Gibbous, 69% of the Moon is Illuminated
Nov 23
Waning Gibbous
Nov 25
Last Quarter
Dec 2
New
Dec 9
First Quarter
Dec 17
Full

Hourly Weather History & Observations

Time (CST) Temp. Windchill Dew Point Humidity Pressure Visibility Wind Dir Wind Speed Gust Speed Precip Events Conditions
12:15 AM 30.2 °F 21.9 °F 28.4 °F 93% 30.50 in 10.0 mi NNW 9.2 mph - N/A   Clear
12:35 AM 30.2 °F 20.8 °F 28.4 °F 93% 30.50 in 10.0 mi NNW 11.5 mph - N/A   Clear
12:55 AM 30.2 °F 21.9 °F 28.4 °F 93% 30.50 in 10.0 mi NNW 9.2 mph - N/A   Clear
1:15 AM 30.2 °F 20.8 °F 28.4 °F 93% 30.51 in 10.0 mi NNW 11.5 mph - N/A   Clear
1:35 AM 30.2 °F 19.8 °F 28.4 °F 93% 30.51 in 10.0 mi NNW 13.8 mph - N/A   Clear
1:55 AM 30.2 °F 20.2 °F 26.6 °F 86% 30.51 in 10.0 mi NNW 12.7 mph - N/A   Clear
2:15 AM 30.2 °F 21.3 °F 26.6 °F 86% 30.51 in 10.0 mi NNW 10.4 mph - N/A   Clear
2:35 AM 28.4 °F 19.1 °F 26.6 °F 93% 30.51 in 10.0 mi NW 10.4 mph - N/A   Clear
2:55 AM 28.4 °F 21.2 °F 26.6 °F 93% 30.51 in 10.0 mi NW 6.9 mph - N/A   Clear
3:15 AM 28.4 °F 21.2 °F 24.8 °F 86% 30.50 in 10.0 mi NW 6.9 mph - N/A   Clear
3:35 AM 28.4 °F 21.2 °F 23.0 °F 80% 30.49 in 10.0 mi NW 6.9 mph - N/A   Clear
3:55 AM 28.4 °F 19.1 °F 21.2 °F 74% 30.50 in 10.0 mi NW 10.4 mph - N/A   Clear
4:15 AM 28.4 °F 19.1 °F 19.4 °F 69% 30.51 in 10.0 mi NW 10.4 mph - N/A   Clear
4:35 AM 28.4 °F 17.5 °F 19.4 °F 69% 30.51 in 10.0 mi NNW 13.8 mph - N/A   Clear
4:55 AM 28.4 °F 19.7 °F 19.4 °F 69% 30.51 in 10.0 mi NW 9.2 mph - N/A   Clear
5:15 AM 28.4 °F 20.4 °F 17.6 °F 64% 30.50 in 10.0 mi NW 8.1 mph - N/A   Clear
5:35 AM 26.6 °F 16.8 °F 19.4 °F 74% 30.51 in 10.0 mi NW 10.4 mph - N/A   Clear
5:55 AM 26.6 °F 20.0 °F 19.4 °F 74% 30.50 in 10.0 mi NW 5.8 mph - N/A   Clear
6:15 AM 26.6 °F 18.2 °F 19.4 °F 74% 30.52 in 10.0 mi NW 8.1 mph - N/A   Clear
6:35 AM 26.6 °F 17.5 °F 19.4 °F 74% 30.52 in 10.0 mi NW 9.2 mph - N/A   Clear
6:55 AM 26.6 °F 17.5 °F 19.4 °F 74% 30.53 in 10.0 mi NW 9.2 mph - N/A   Clear
7:15 AM 26.6 °F 19.1 °F 19.4 °F 74% 30.53 in 10.0 mi NW 6.9 mph - N/A   Clear
7:35 AM 26.6 °F 15.2 °F 19.4 °F 74% 30.55 in 10.0 mi NW 13.8 mph 19.6 mph N/A   Clear
7:55 AM 26.6 °F 15.7 °F 19.4 °F 74% 30.55 in 10.0 mi NW 12.7 mph 19.6 mph N/A   Clear
8:15 AM 26.6 °F 15.2 °F 19.4 °F 74% 30.57 in 10.0 mi NW 13.8 mph - N/A   Clear
8:35 AM 26.6 °F 15.2 °F 19.4 °F 74% 30.58 in 10.0 mi NNW 13.8 mph 21.9 mph N/A   Clear
8:55 AM 26.6 °F 13.8 °F 19.4 °F 74% 30.57 in 10.0 mi NNW 17.3 mph - N/A   Clear
9:15 AM 26.6 °F 13.4 °F 21.2 °F 80% 30.58 in 10.0 mi NNW 18.4 mph 23.0 mph N/A   Clear
9:35 AM 28.4 °F 16.2 °F 21.2 °F 74% 30.58 in 10.0 mi NNW 17.3 mph 23.0 mph N/A   Scattered Clouds
9:55 AM 28.4 °F 15.8 °F 19.4 °F 69% 30.59 in 10.0 mi NNW 18.4 mph - N/A   Scattered Clouds
10:15 AM 28.4 °F 15.8 °F 19.4 °F 69% 30.59 in 10.0 mi NNW 18.4 mph 23.0 mph N/A   Clear
10:35 AM 28.4 °F 16.2 °F 21.2 °F 74% 30.59 in 10.0 mi NNW 17.3 mph 24.2 mph N/A   Scattered Clouds
10:55 AM 28.4 °F 15.4 °F 21.2 °F 74% 30.59 in 10.0 mi NNW 19.6 mph 24.2 mph N/A   Mostly Cloudy
11:15 AM 28.4 °F 15.4 °F 21.2 °F 74% 30.59 in 10.0 mi NNW 19.6 mph 24.2 mph N/A   Scattered Clouds
11:35 AM 28.4 °F 15.8 °F 21.2 °F 74% 30.59 in 10.0 mi NNW 18.4 mph 25.3 mph N/A   Mostly Cloudy
11:55 AM 28.4 °F 16.6 °F 19.4 °F 69% 30.59 in 10.0 mi NNW 16.1 mph - N/A   Mostly Cloudy
12:15 PM 28.4 °F 15.8 °F 19.4 °F 69% 30.59 in 10.0 mi NNW 18.4 mph 24.2 mph N/A   Mostly Cloudy
12:35 PM 28.4 °F 15.1 °F 19.4 °F 69% 30.59 in 10.0 mi NNW 20.7 mph 25.3 mph N/A   Overcast
12:55 PM 28.4 °F 16.2 °F 19.4 °F 69% 30.59 in 10.0 mi NNW 17.3 mph 23.0 mph N/A   Mostly Cloudy
1:15 PM 28.4 °F 15.8 °F 17.6 °F 64% 30.60 in 10.0 mi North 18.4 mph 25.3 mph N/A   Mostly Cloudy
1:35 PM 28.4 °F 14.7 °F 19.4 °F 69% 30.60 in 10.0 mi North 21.9 mph 25.3 mph N/A   Mostly Cloudy
1:55 PM 26.6 °F 13.4 °F 17.6 °F 69% 30.61 in 10.0 mi NNW 18.4 mph 28.8 mph N/A   Mostly Cloudy
2:15 PM 26.6 °F 11.7 °F 15.8 °F 64% 30.62 in 10.0 mi NNW 24.2 mph 28.8 mph N/A   Mostly Cloudy
2:35 PM 26.6 °F 12.7 °F 17.6 °F 69% 30.62 in 10.0 mi NNW 20.7 mph 26.5 mph N/A   Mostly Cloudy
2:55 PM 26.6 °F 12.0 °F 17.6 °F 69% 30.63 in 10.0 mi NNW 23.0 mph 27.6 mph N/A   Overcast
3:15 PM 26.6 °F 13.4 °F 14.0 °F 59% 30.64 in 10.0 mi NNW 18.4 mph - N/A   Mostly Cloudy
3:35 PM 24.8 °F 9.6 °F 15.8 °F 69% 30.65 in 10.0 mi North 23.0 mph - N/A   Mostly Cloudy
3:55 PM 24.8 °F 10.3 °F 14.0 °F 64% 30.65 in 10.0 mi NNW 20.7 mph 26.5 mph N/A   Scattered Clouds
4:15 PM 23.0 °F 9.2 °F 14.0 °F 68% 30.65 in 10.0 mi NNW 17.3 mph 23.0 mph N/A   Scattered Clouds
4:35 PM 23.0 °F 8.7 °F 12.2 °F 63% 30.66 in 10.0 mi North 18.4 mph 25.3 mph N/A   Scattered Clouds
4:55 PM 23.0 °F 9.2 °F 14.0 °F 68% 30.66 in 10.0 mi NNW 17.3 mph - N/A   Scattered Clouds
5:15 PM 23.0 °F 9.6 °F 14.0 °F 68% 30.67 in 10.0 mi NNW 16.1 mph - N/A   Mostly Cloudy
5:35 PM 23.0 °F 10.1 °F 12.2 °F 63% 30.68 in 10.0 mi NNW 15.0 mph 19.6 mph N/A   Mostly Cloudy
5:55 PM 23.0 °F 9.6 °F 12.2 °F 63% 30.67 in 10.0 mi North 16.1 mph - N/A   Scattered Clouds
6:15 PM 21.2 °F 7.8 °F 12.2 °F 68% 30.68 in 10.0 mi NNW 15.0 mph - N/A   Clear
6:35 PM 21.2 °F 8.3 °F 12.2 °F 68% 30.68 in 10.0 mi NNW 13.8 mph - N/A   Clear
6:55 PM 21.2 °F 8.9 °F 12.2 °F 68% 30.69 in 10.0 mi NNW 12.7 mph - N/A   Clear
7:15 PM 21.2 °F 8.3 °F 12.2 °F 68% 30.69 in 10.0 mi NNW 13.8 mph - N/A   Clear
7:35 PM 21.2 °F 7.8 °F 12.2 °F 68% 30.69 in 10.0 mi North 15.0 mph - N/A   Clear
7:55 PM 21.2 °F 8.9 °F 12.2 °F 68% 30.69 in 10.0 mi NNW 12.7 mph - N/A   Clear
8:15 PM 21.2 °F 8.9 °F 10.4 °F 63% 30.70 in 10.0 mi North 12.7 mph - N/A   Clear
8:35 PM 19.4 °F 7.2 °F 10.4 °F 68% 30.70 in 10.0 mi NNW 11.5 mph - N/A   Clear
8:55 PM 19.4 °F 7.2 °F 10.4 °F 68% 30.70 in 10.0 mi NNW 11.5 mph - N/A   Clear
9:15 PM 19.4 °F 7.9 °F 10.4 °F 68% 30.70 in 10.0 mi NNW 10.4 mph - N/A   Clear
9:35 PM 19.4 °F 7.9 °F 10.4 °F 68% 30.70 in 10.0 mi North 10.4 mph - N/A   Clear
9:55 PM 19.4 °F 7.2 °F 12.2 °F 74% 30.70 in 10.0 mi North 11.5 mph - N/A   Clear
10:15 PM 19.4 °F 7.2 °F 10.4 °F 68% 30.70 in 10.0 mi North 11.5 mph - N/A   Clear
10:35 PM 17.6 °F 5.7 °F 10.4 °F 73% 30.70 in 10.0 mi North 10.4 mph - N/A   Clear
10:55 PM 17.6 °F 5.7 °F 10.4 °F 73% 30.70 in 10.0 mi North 10.4 mph - N/A   Clear
11:15 PM 17.6 °F 6.4 °F 10.4 °F 73% 30.70 in 10.0 mi North 9.2 mph - N/A   Clear
11:35 PM 17.6 °F 7.3 °F 10.4 °F 73% 30.70 in 10.0 mi North 8.1 mph - N/A   Clear
11:55 PM 17.6 °F 5.7 °F 10.4 °F 73% 30.71 in 10.0 mi North 10.4 mph - N/A   Clear